Simultaneous Nadir Overpasses (SNOs) Predictions

Prediction of SNOs between AQUA and METOP-B Satellite Orbit:

Table of predicted SNOs for the next 14.0 days since TLE Epoch: 12/12/2015
Index Date (AQUA) Time (AQUA) Lat,Lon (AQUA) SZA (AQUA ) Date (METOP-B) Time (METOP-B) Lat,Lon (METOP-B) SZA (METOP-B ) Distance(km) Time Diff (sec)
1 12/12/2015 19:50:20 -73.74, 56.78 83.23 12/12/2015 19:49:27 -73.74, 56.72 83.22 2.08 53
2 12/12/2015 20:39:49 73.83,-135.77 96.87 12/12/2015 20:40:05 73.81,-135.78 96.85 2.37 16
3 12/12/2015 21:29:27 -74.46, 30.41 82.47 12/12/2015 21:30:33 -74.50, 33.27 82.48 85.12 66
4 12/15/2015 15:24:34 -73.78, 123.15 83.01 12/15/2015 15:23:44 -73.78, 123.24 83.00 2.90 50
5 12/15/2015 16:14:02 73.82, -69.30 97.04 12/15/2015 16:14:23 73.80, -69.38 97.02 3.31 21
6 12/18/2015 10:58:48 -73.79,-170.43 82.88 12/18/2015 10:58:03 -73.77,-170.37 82.89 2.64 45
7 12/18/2015 11:48:16 73.83, -2.89 97.18 12/18/2015 11:48:41 73.83, -2.88 97.18 0.18 25
8 12/21/2015 06:33:01 -73.77,-103.94 82.84 12/21/2015 06:32:22 -73.75,-104.00 82.85 2.68 39
9 12/21/2015 07:22:29 73.82, 63.59 97.22 12/21/2015 07:23:00 73.81, 63.48 97.22 3.48 31
10 12/24/2015 02:07:13 -73.77, -37.50 82.84 12/24/2015 02:06:39 -73.78, -37.52 82.83 1.05 34
11 12/24/2015 02:56:41 73.82, 130.02 97.22 12/24/2015 02:57:17 73.83, 129.95 97.24 2.53 36




NCC Satellite Simultaneous Nadir Overpasses (SNOs) Prediction Service
